Total_Precipitation_Accumulation
0.52 0.54 0.48 0.40 0.34 0.31 0.28 0.26 0.24 0.22 0.22 0.20 0.18 0.17 0.16 0.15 0.16 0.14 0.11 0.09 0.08 0.09 0.09 0.11 0.16 0.23 0.27 0.30 0.33 0.43 0.50 0.44 0.32 0.34 0.27 0.26 0.27 0.22 0.22 0.15 0.07 0.04 0.03
0.50 0.47 0.43 0.37 0.33 0.33 0.31 0.27 0.24 0.21 0.21 0.19 0.19 0.21 0.21 0.20 0.17 0.16 0.14 0.09 0.07 0.06 0.04 0.05 0.10 0.16 0.22 0.28 0.33 0.37 0.44 0.51 0.46 0.46 0.45 0.36 0.33 0.32 0.32 0.28 0.18 0.11 0.09
0.59 0.49 0.46 0.44 0.41 0.37 0.32 0.30 0.28 0.30 0.33 0.32 0.33 0.37 0.34 0.32 0.26 0.22 0.20 0.16 0.11 0.08 0.07 0.06 0.08 0.10 0.15 0.22 0.31 0.41 0.45 0.50 0.51 0.46 0.51 0.53 0.42 0.39 0.31 0.25 0.19 0.18 0.18
0.86 0.72 0.62 0.54 0.47 0.41 0.37 0.36 0.34 0.37 0.41 0.40 0.44 0.49 0.53 0.54 0.50 0.41 0.33 0.27 0.20 0.15 0.13 0.10 0.08 0.08 0.14 0.26 0.39 0.47 0.51 0.51 0.53 0.53 0.55 0.58 0.50 0.41 0.29 0.24 0.25 0.25 0.23
0.91 0.78 0.64 0.52 0.42 0.40 0.44 0.45 0.41 0.37 0.39 0.38 0.44 0.50 0.56 0.62 0.63 0.56 0.40 0.28 0.21 0.16 0.11 0.09 0.09 0.08 0.10 0.19 0.32 0.50 0.54 0.56 0.56 0.58 0.58 0.53 0.46 0.36 0.29 0.26 0.24 0.30 0.25
0.73 0.69 0.54 0.47 0.42 0.38 0.40 0.47 0.47 0.37 0.35 0.36 0.38 0.34 0.34 0.39 0.50 0.43 0.28 0.21 0.18 0.16 0.12 0.09 0.09 0.07 0.07 0.10 0.13 0.25 0.38 0.48 0.55 0.54 0.55 0.51 0.47 0.41 0.37 0.29 0.22 0.20 0.21
0.44 0.45 0.36 0.34 0.40 0.41 0.44 0.43 0.37 0.30 0.32 0.34 0.29 0.23 0.20 0.23 0.26 0.20 0.21 0.24 0.22 0.17 0.15 0.13 0.14 0.12 0.10 0.11 0.12 0.17 0.20 0.23 0.27 0.33 0.40 0.42 0.44 0.41 0.36 0.29 0.22 0.17 0.21
0.20 0.16 0.13 0.21 0.30 0.31 0.29 0.27 0.22 0.22 0.27 0.34 0.28 0.25 0.24 0.20 0.20 0.23 0.21 0.23 0.29 0.28 0.23 0.16 0.17 0.17 0.19 0.24 0.20 0.19 0.20 0.22 0.21 0.19 0.23 0.28 0.29 0.32 0.32 0.34 0.31 0.21 0.15
0.02 0.02 0.04 0.05 0.06 0.06 0.06 0.07 0.10 0.15 0.18 0.17 0.20 0.33 0.31 0.26 0.30 0.28 0.21 0.22 0.29 0.32 0.28 0.25 0.25 0.27 0.39 0.36 0.25 0.24 0.26 0.27 0.26 0.27 0.31 0.32 0.31 0.34 0.36 0.40 0.36 0.29 0.24
0.00 0.00 0.00 0.01 0.01 0.01 0.01 0.01 0.03 0.06 0.08 0.08 0.11 0.21 0.27 0.28 0.26 0.15 0.17 0.24 0.28 0.33 0.34 0.32 0.41 0.35 0.39 0.32 0.22 0.27 0.32 0.32 0.31 0.35 0.35 0.34 0.31 0.32 0.37 0.38 0.43 0.44 0.40
0.00 0.00 0.00 0.00 0.01 0.01 0.02 0.01 0.00 0.01 0.01 0.04 0.06 0.06 0.08 0.09 0.09 0.08 0.14 0.17 0.19 0.26 0.29 0.28 0.24 0.26 0.22 0.21 0.18 0.21 0.31 0.28 0.29 0.32 0.28 0.24 0.21 0.23 0.26 0.29 0.36 0.39 0.41
0.00 0.00 0.00 0.00 0.01 0.01 0.02 0.01 0.00 0.00 0.01 0.01 0.01 0.01 0.01 0.02 0.01 0.02 0.03 0.04 0.06 0.11 0.13 0.15 0.14 0.15 0.14 0.17 0.14 0.18 0.22 0.17 0.22 0.25 0.21 0.17 0.17 0.17 0.16 0.18 0.20 0.25 0.30
0.00 0.01 0.00 0.00 0.01 0.00 0.01 0.01 0.01 0.01 0.01 0.01 0.01 0.01 0.02 0.04 0.03 0.02 0.02 0.02 0.02 0.03 0.04 0.08 0.12 0.15 0.13 0.12 0.13 0.14 0.14 0.15 0.22 0.22 0.20 0.17 0.12 0.11 0.10 0.11 0.12 0.14 0.18
0.00 0.00 0.00 0.00 0.01 0.00 0.00 0.00 0.00 0.01 0.01 0.01 0.01 0.03 0.06 0.08 0.05 0.02 0.03 0.04 0.05 0.04 0.05 0.10 0.15 0.18 0.15 0.15 0.15 0.13 0.15 0.19 0.21 0.21 0.20 0.14 0.08 0.08 0.09 0.10 0.10 0.10 0.11
0.00 0.00 0.00 0.00 0.01 0.01 0.00 0.00 0.00 0.00 0.00 0.01 0.01 0.02 0.02 0.03 0.02 0.03 0.04 0.06 0.06 0.06 0.11 0.23 0.32 0.29 0.24 0.20 0.18 0.20 0.22 0.21 0.19 0.21 0.20 0.14 0.09 0.09 0.08 0.06 0.06 0.07 0.09
0.00 0.00 0.00 0.00 0.01 0.01 0.01 0.01 0.00 0.01 0.01 0.01 0.01 0.01 0.01 0.02 0.03 0.06 0.09 0.12 0.12 0.17 0.25 0.40 0.47 0.50 0.47 0.39 0.32 0.29 0.29 0.27 0.25 0.23 0.21 0.17 0.14 0.12 0.10 0.08 0.06 0.07 0.08
0.00 0.00 0.00 0.00 0.00 0.00 0.00 0.01 0.02 0.01 0.01 0.00 0.00 0.01 0.01 0.03 0.06 0.13 0.18 0.20 0.26 0.44 0.60 0.63 0.64 0.64 0.63 0.52 0.40 0.32 0.25 0.22 0.21 0.20 0.17 0.13 0.10 0.08 0.06 0.05 0.05 0.05 0.05
0.00 0.00 0.00 0.00 0.00 0.00 0.00 0.00 0.02 0.03 0.04 0.02 0.01 0.00 0.01 0.02 0.08 0.18 0.28 0.38 0.44 0.58 0.71 0.72 0.77 0.74 0.68 0.50 0.33 0.24 0.16 0.13 0.12 0.09 0.07 0.05 0.03 0.03 0.02 0.02 0.03 0.02 0.02
0.00 0.00 0.00 0.00 0.00 0.00 0.00 0.00 0.00 0.01 0.01 0.02 0.02 0.01 0.00 0.01 0.03 0.08 0.15 0.20 0.22 0.31 0.38 0.43 0.46 0.44 0.38 0.27 0.16 0.11 0.05 0.02 0.02 0.01 0.01 0.01 0.01 0.01 0.02 0.02 0.03 0.02 0.03
0.00 0.00 0.00 0.00 0.00 0.00 0.00 0.00 0.00 0.00 0.01 0.01 0.01 0.01 0.01 0.02 0.04 0.03 0.04 0.05 0.07 0.09 0.12 0.12 0.12 0.11 0.09 0.06 0.03 0.03 0.03 0.01 0.01 0.00 0.01 0.01 0.02 0.02 0.02 0.03 0.04 0.04 0.04
0.00 0.00 0.00 0.00 0.00 0.00 0.00 0.00 0.00 0.00 0.00 0.00 0.00 0.00 0.01 0.02 0.02 0.02 0.02 0.03 0.03 0.03 0.03 0.04 0.04 0.03 0.02 0.01 0.01 0.01 0.01 0.01 0.00 0.00 0.01 0.01 0.02 0.03 0.03 0.03 0.03 0.03 0.04
0.00 0.00 0.00 0.00 0.00 0.00 0.00 0.00 0.00 0.00 0.00 0.00 0.00 0.00 0.01 0.03 0.04 0.03 0.02 0.02 0.02 0.03 0.02 0.02 0.02 0.02 0.01 0.01 0.01 0.01 0.00 0.00 0.01 0.01 0.01 0.01 0.02 0.02 0.02 0.02 0.03 0.04 0.04
0.00 0.00 0.00 0.00 0.00 0.00 0.00 0.00 0.00 0.00 0.00 0.00 0.00 0.00 0.01 0.02 0.02 0.02 0.02 0.02 0.02 0.02 0.01 0.01 0.01 0.01 0.01 0.01 0.00 0.00 0.00 0.00 0.01 0.01 0.02 0.02 0.03 0.03 0.03 0.04 0.04 0.04 0.03
0.00 0.00 0.00 0.00 0.00 0.00 0.00 0.00 0.00 0.00 0.00 0.00 0.00 0.01 0.00 0.01 0.01 0.01 0.01 0.01 0.01 0.01 0.00 0.00 0.00 0.00 0.00 0.00 0.00 0.00 0.00 0.00 0.01 0.02 0.03 0.03 0.04 0.06 0.07 0.07 0.06 0.07 0.09
0.00 0.00 0.00 0.00 0.00 0.00 0.00 0.00 0.00 0.00 0.00 0.00 0.00 0.01 0.01 0.01 0.01 0.01 0.00 0.00 0.00 0.00 0.00 0.00 0.00 0.00 0.00 0.00 0.00 0.00 0.01 0.01 0.01 0.01 0.01 0.01 0.02 0.04 0.06 0.06 0.06 0.06 0.06
0.00 0.00 0.00 0.00 0.00 0.00 0.00 0.00 0.00 0.00 0.00 0.00 0.00 0.01 0.01 0.01 0.01 0.00 0.00 0.00 0.00 0.00 0.00 0.00 0.00 0.00 0.00 0.00 0.00 0.01 0.01 0.01 0.01 0.01 0.01 0.01 0.02 0.03 0.03 0.03 0.02 0.01 0.01